Rochelle, IL

11:20 PM CST on February 23, 2017 (GMT -0600)
Rochelle

Weather History for KRPJ - July, 2013

Change the Weather History Date:

Thursday, July 18, 2013

  Actual Average (KRFD) Record (KRFD)
Temperature  
Mean Temperature 80 °F -  
Max Temperature 93 °F 84 °F 99 °F (2012)
Min Temperature 69 °F 65 °F 45 °F (1924)
Cooling Degree Days 16    
Growing Degree Days 30 (Base 50)    
Moisture  
Dew Point 71 °F    
Average Humidity 75    
Maximum Humidity 95    
Minimum Humidity 43    
Precipitation  
Precipitation 0.00 in - - ()
Sea Level Pressure  
Sea Level Pressure 30.11 in    
Wind  
Wind Speed 3 mph (SW)    
Max Wind Speed 14 mph    
Max Gust Speed 18 mph    
Visibility 9 miles    
Events      
Averages and records for this station are not official NWS values.
T = Trace of Precipitation, MM = Missing Value Source: NWS Daily Summary

Daily Weather History Graph

Daily Weather History Graph

Search for Another Location

Airport or City:

Trip Planner

Search our weather history database for the weather conditions in past years. The results will help you decide how hot, cold, wet, or windy it might be!

Date:

Astronomy

Jul. 18, 2013 Rise Set
Actual Time 5:37 AM CDT 8:27 PM CDT
Civil Twilight 5:04 AM CDT 9:00 PM CDT
Nautical Twilight 4:22 AM CDT 9:41 PM CDT
Astronomical Twilight 3:34 AM CDT 10:29 PM CDT
Moon 4:23 PM CDT (7/18) 1:28 AM CDT (7/18)
Length of Visible Light 15h 56m
Length of Day
14h 50m
Waxing Gibbous, 77% of the Moon is Illuminated
Jul 18
Waxing Gibbous
Jul 22
Full
Jul 29
Last Quarter
Aug 6
New
Aug 14
First Quarter

Hourly Weather History & Observations

Time (CDT) Temp. Heat Index Dew Point Humidity Pressure Visibility Wind Dir Wind Speed Gust Speed Precip Events Conditions
12:15 AM 73.6 °F - 71.1 °F 92% 30.22 in 10.0 mi Calm Calm - N/A   Clear
12:35 AM 72.7 °F - 70.3 °F 92% 30.22 in 7.0 mi Calm Calm - N/A   Clear
12:55 AM 72.5 °F - 70.3 °F 93% 30.21 in 7.0 mi Calm Calm - N/A   Clear
1:15 AM 72.7 °F - 70.3 °F 92% 30.21 in 7.0 mi Calm Calm - N/A   Clear
1:35 AM 72.9 °F - 70.2 °F 91% 30.21 in 7.0 mi Calm Calm - N/A   Clear
1:55 AM 71.6 °F - 69.4 °F 93% 30.21 in 7.0 mi Calm Calm - N/A   Clear
2:15 AM 72.1 °F - 69.8 °F 92% 30.21 in 10.0 mi Calm Calm - N/A   Clear
2:35 AM 71.8 °F - 69.4 °F 92% 30.21 in 10.0 mi Calm Calm - N/A   Clear
2:55 AM 71.8 °F - 69.3 °F 92% 30.20 in 10.0 mi Calm Calm - N/A   Clear
3:15 AM 70.7 °F - 68.7 °F 93% 30.20 in 7.0 mi Calm Calm - N/A   Clear
3:35 AM 70.7 °F - 68.9 °F 94% 30.20 in 7.0 mi Calm Calm - N/A   Clear
3:55 AM 70.7 °F - 68.9 °F 94% 30.20 in 5.0 mi Calm Calm - N/A   Clear
4:15 AM 70.2 °F - 68.5 °F 95% 30.19 in 5.0 mi Calm Calm - N/A   Clear
4:35 AM 69.8 °F - 68.0 °F 94% 30.18 in 5.0 mi Calm Calm - N/A   Clear
4:55 AM 69.8 °F - 68.2 °F 95% 30.18 in 5.0 mi Calm Calm - N/A   Clear
5:15 AM 69.3 °F - 67.6 °F 95% 30.18 in 5.0 mi Calm Calm - N/A   Clear
5:35 AM 69.1 °F - 67.3 °F 94% 30.18 in 4.0 mi Calm Calm - N/A   Clear
5:55 AM 69.1 °F - 67.5 °F 95% 30.17 in 3.0 mi Calm Calm - N/A   Clear
6:15 AM 69.8 °F - 68.0 °F 94% 30.17 in 4.0 mi Calm Calm - N/A   Clear
6:35 AM 71.1 °F - 69.3 °F 94% 30.17 in 4.0 mi Calm Calm - N/A   Clear
6:55 AM 73.0 °F - 70.9 °F 93% 30.17 in 5.0 mi Calm Calm - N/A   Clear
7:15 AM 75.0 °F - 72.0 °F 90% 30.17 in 7.0 mi Calm Calm - N/A   Clear
7:35 AM 76.6 °F - 72.9 °F 88% 30.17 in 7.0 mi Calm Calm - N/A   Clear
7:55 AM 78.3 °F - 73.6 °F 85% 30.16 in 10.0 mi Calm Calm - N/A   Clear
8:15 AM 80.4 °F 85.1 °F 73.8 °F 80% 30.17 in 10.0 mi SW 4.6 mph - N/A   Clear
8:35 AM 82.2 °F 88.0 °F 73.8 °F 75% 30.16 in 10.0 mi WSW 6.9 mph - N/A   Clear
8:55 AM 83.5 °F 90.3 °F 73.9 °F 73% 30.16 in 10.0 mi WSW 5.8 mph - N/A   Clear
9:15 AM 84.2 °F 90.9 °F 73.4 °F 70% 30.16 in 10.0 mi WSW 6.9 mph - N/A   Clear
9:35 AM 85.8 °F 92.6 °F 72.7 °F 65% 30.15 in 10.0 mi SW 4.6 mph - N/A   Clear
9:55 AM 86.2 °F 94.2 °F 73.9 °F 67% 30.15 in 10.0 mi SW 4.6 mph - N/A   Clear
10:15 AM 86.9 °F 95.0 °F 73.8 °F 65% 30.15 in 10.0 mi SW 6.9 mph - N/A   Clear
10:35 AM 87.4 °F 96.2 °F 74.3 °F 65% 30.15 in 10.0 mi SW 8.1 mph - N/A   Clear
10:55 AM 88.0 °F 96.0 °F 73.6 °F 62% 30.15 in 10.0 mi SW 6.9 mph - N/A   Clear
11:15 AM 88.0 °F 96.0 °F 73.6 °F 62% 30.14 in 10.0 mi SSW 8.1 mph - N/A   Clear
11:35 AM 88.7 °F 96.2 °F 72.9 °F 59% 30.14 in 10.0 mi SW 9.2 mph - N/A   Clear
11:55 AM 89.2 °F 97.9 °F 73.9 °F 60% 30.14 in 10.0 mi SW 9.2 mph - N/A   Clear
12:15 PM 90.0 °F 97.4 °F 72.3 °F 56% 30.13 in 10.0 mi WSW 8.1 mph - N/A   Clear
12:35 PM 90.0 °F 96.9 °F 72.0 °F 55% 30.12 in 10.0 mi SW 9.2 mph - N/A   Clear
12:55 PM 89.4 °F 95.8 °F 71.4 °F 55% 30.12 in 10.0 mi WSW 10.4 mph - N/A   Scattered Clouds
1:15 PM 90.0 °F 96.4 °F 71.2 °F 54% 30.11 in 10.0 mi WSW 11.5 mph - N/A   Scattered Clouds
1:35 PM 91.0 °F 97.6 °F 71.1 °F 52% 30.10 in 10.0 mi WSW 10.4 mph - N/A   Scattered Clouds
1:55 PM 90.5 °F 96.5 °F 70.9 °F 52% 30.10 in 10.0 mi West 11.5 mph - N/A   Scattered Clouds
2:15 PM 91.0 °F 98.2 °F 72.0 °F 53% 30.09 in 10.0 mi SW 10.4 mph - N/A   Scattered Clouds
2:35 PM 91.6 °F 98.2 °F 70.9 °F 51% 30.08 in 10.0 mi WSW 13.8 mph 17.3 mph N/A   Scattered Clouds
2:55 PM 92.5 °F 97.9 °F 69.6 °F 47% 30.08 in 10.0 mi WSW 10.4 mph - N/A   Clear
3:15 PM 91.4 °F 96.8 °F 69.6 °F 49% 30.07 in 10.0 mi WSW 12.7 mph 16.1 mph N/A   Scattered Clouds
3:35 PM 92.1 °F 97.2 °F 69.1 °F 47% 30.06 in 10.0 mi WSW 12.7 mph - N/A   Scattered Clouds
3:55 PM 92.8 °F 96.6 °F 67.3 °F 43% 30.05 in 10.0 mi WSW 12.7 mph 18.4 mph N/A   Scattered Clouds
4:15 PM 92.3 °F 98.1 °F 70.0 °F 48% 30.04 in 10.0 mi West 10.4 mph - N/A   Clear
5:15 PM 90.5 °F 95.5 °F 69.6 °F 50% 30.02 in 10.0 mi WSW 9.2 mph - N/A   Clear
5:35 PM 90.5 °F 96.0 °F 70.2 °F 51% 30.01 in 10.0 mi WSW 9.2 mph - N/A   Clear
5:55 PM 90.5 °F 96.0 °F 70.2 °F 51% 30.01 in 10.0 mi WSW 10.4 mph - N/A   Clear
6:15 PM 89.6 °F 96.2 °F 71.4 °F 55% 30.01 in 10.0 mi SW 6.9 mph - N/A   Clear
6:35 PM 88.5 °F 95.8 °F 72.7 °F 59% 30.01 in 10.0 mi SW 3.5 mph - N/A   Clear
6:55 PM 87.4 °F 95.3 °F 73.4 °F 63% 30.01 in 10.0 mi SW 3.5 mph - N/A   Clear
7:15 PM 86.2 °F 94.6 °F 74.7 °F 68% 30.00 in 10.0 mi SW 4.6 mph - N/A   Clear
7:35 PM 84.9 °F 92.1 °F 73.6 °F 69% 30.00 in 10.0 mi SSW 5.8 mph - N/A   Clear
7:55 PM 82.9 °F 89.7 °F 74.1 °F 75% 30.00 in 10.0 mi SSW 4.6 mph - N/A   Clear
8:15 PM 81.5 °F 87.4 °F 74.5 °F 79% 29.99 in 10.0 mi SSW 4.6 mph - N/A   Clear
8:35 PM 79.9 °F - 74.8 °F 85% 30.00 in 10.0 mi South 5.8 mph - N/A   Clear
8:55 PM 78.3 °F - 74.8 °F 89% 29.99 in 10.0 mi SSW 5.8 mph - N/A   Clear
9:15 PM 78.3 °F - 74.3 °F 88% 29.99 in 10.0 mi South 5.8 mph - N/A   Clear
9:35 PM 77.9 °F - 73.8 °F 87% 29.99 in 10.0 mi South 5.8 mph - N/A   Clear
9:55 PM 77.9 °F - 73.4 °F 86% 29.99 in 10.0 mi South 5.8 mph - N/A   Clear
10:15 PM 77.4 °F - 73.2 °F 87% 29.99 in 10.0 mi South 5.8 mph - N/A   Clear
10:35 PM 77.0 °F - 72.9 °F 87% 29.99 in 10.0 mi South 5.8 mph - N/A   Clear
10:55 PM 77.0 °F - 72.7 °F 86% 29.99 in 10.0 mi South 6.9 mph - N/A   Clear
11:15 PM 77.9 °F - 72.5 °F 83% 29.99 in 10.0 mi SSW 8.1 mph - N/A   Clear
11:35 PM 77.2 °F - 72.5 °F 85% 29.99 in 10.0 mi SSW 6.9 mph - N/A   Clear
11:55 PM 77.2 °F - 72.5 °F 85% 29.98 in 10.0 mi SSW 8.1 mph - N/A   Clear